Location: Vancouver
(49.2500°N, 123.1330°W)
Time: 03:11:29
(UTC-07:00)

Daily predictions for brighter satellites

Satellite Brightness Start Highest point End
(mag) Time Altitude Azimuth Time Altitude Azimuth Time Altitude Azimuth
Spot 4 4.1 00:07:39 58° W 00:07:39 58° W 00:12:17 10° NNW
Meteor 2-6 Rocket 4.4 00:10:24 56° SW 00:11:32 70° WNW 00:17:28 10° N
Cosmos 1486 Rocket 4.0 00:10:55 10° NNW 00:16:08 76° WSW 00:16:08 76° WSW
ADEOS Rocket 4.0 00:10:18 10° NNE 00:16:22 33° E 00:16:45 33° E
ALOS 2 3.1 00:17:14 54° NNE 00:17:14 54° NNE 00:20:58 10° N
CZ-4C R/B 4.4 00:18:56 41° NNE 00:18:56 41° NNE 00:21:46 10° N
Cosmos 1943 Rocket 3.2 00:16:45 10° NW 00:21:38 33° WSW 00:21:46 33° WSW
Cosmos 1656 Rocket 3.7 00:19:50 10° NNW 00:25:31 68° WSW 00:25:34 68° WSW
Lacrosse 5 3.6 00:21:58 10° WNW 00:24:31 22° W 00:24:31 22° W
Cosmos 1461 4.4 00:23:01 10° NW 00:26:21 34° W 00:26:21 34° W
Cosmos 2100 Rocket 4.0 00:27:20 60° SW 00:28:29 76° W 00:34:55 10° N
Cosmos 1503 Rocket 3.9 00:24:17 10° NNW 00:29:22 79° NE 00:29:22 79° NE
Mayak 0.0 00:26:24 10° NNE 00:29:09 36° NE 00:29:09 36° NE
Cosmos 1802 Rocket 3.8 00:30:40 72° SSW 00:31:22 89° WNW 00:37:38 10° N
Cosmos 2061 Rocket 3.9 00:33:30 67° SSW 00:34:26 85° W 00:40:56 10° N
USA 234 3.2 00:37:57 60° SSW 00:38:17 61° SW 00:44:47 10° WNW
SL-08 R/B 4.4 00:40:36 71° SSE 00:41:17 80° E 00:47:43 10° NNE
Okean 1 Rocket 4.0 00:37:05 10° N 00:40:42 44° NE 00:40:42 44° NE
Cosmos 2233 Rocket 4.4 00:41:11 46° E 00:41:29 46° E 00:47:18 10° NNE
SeaSat 1 2.5 00:41:58 73° NE 00:41:58 73° NE 00:46:45 10° NNW
Cosmos 1300 Rocket 4.1 00:37:20 10° N 00:40:54 56° N 00:40:54 56° N
CZ-4B R/B 3.7 00:42:04 10° NNE 00:46:03 58° NE 00:46:03 58° NE
Lacrosse 4 Rocket 3.7 00:44:49 10° NNW 00:48:15 21° NE 00:49:54 18° ENE
Cosmos 1975 4.3 00:50:26 10° N 00:53:19 35° NE 00:53:19 35° NE
Okean 3 4.4 01:00:55 45° NNE 01:00:55 45° NNE 01:04:01 10° NNE
Cosmos 2369 Rocket 4.4 00:58:31 10° WNW 01:00:39 12° W 01:00:52 12° W
COBE Rocket 4.2 00:56:51 10° N 01:01:15 59° NW 01:01:15 59° NW
Cosmos 1980 Rocket 4.4 00:57:37 10° N 01:01:46 21° NE 01:05:56 10° E
Cosmos 1697 Rocket 4.3 00:58:43 10° NNW 01:03:40 30° NE 01:06:40 19° E
CZ-4B R/B 4.3 01:04:04 13° ENE 01:04:04 13° ENE 01:05:28 10° NNE
Cosmos 1354 Rocket 4.4 00:59:20 10° NNW 01:03:49 53° WNW 01:03:49 53° WNW
CZ-2C R/B 4.0 01:00:40 10° N 01:05:21 32° WNW 01:06:53 27° W
Cosmos 1725 Rocket 3.8 01:05:51 72° SW 01:06:25 79° W 01:12:38 10° N
COSMOS 2406 3.4 01:09:52 57° E 01:09:52 57° E 01:15:02 10° NE
Cosmos 1992 Rocket 4.1 01:14:40 69° ENE 01:14:40 69° ENE 01:19:24 10° NNE
Cosmos 2016 Rocket 4.4 01:17:01 46° WSW 01:17:58 50° WNW 01:23:55 10° N
Cosmos 2082 Rocket 4.1 01:20:01 17° E 01:20:01 17° E 01:23:19 10° ENE
Cosmos 1656 4.3 01:15:42 10° NNW 01:21:17 51° NE 01:22:36 42° E
Cosmos 1674 Rocket 4.4 01:23:19 48° NNW 01:23:19 48° NNW 01:26:46 10° N
Meteor 1-18 Rocket 4.1 01:23:39 81° E 01:23:39 81° E 01:29:22 10° NNE
CZ-4C R/B 4.2 01:19:42 10° W 01:24:41 29° NNW 01:30:21 10° NE
H-2A R/B 3.8 01:32:45 25° WNW 01:32:45 25° WNW 01:35:32 10° NW
Cosmos 1242 Rocket 4.5 01:29:32 10° N 01:31:44 28° NNE 01:31:44 28° NNE
Gblst 52 Del rocket 4.3 01:30:03 18° W 01:34:14 71° N 01:40:11 10° E
Meteor 1-12 Rocket 4.1 01:29:11 10° NNW 01:34:54 89° W 01:35:02 86° S
Cosmos 1666 4.3 01:34:08 10° N 01:36:19 33° NNW 01:36:19 33° NNW
Cosmos 1777 Rocket 4.1 01:33:47 10° NNW 01:39:04 67° ENE 01:39:14 66° ENE
Cosmos 1378 Rocket 4.3 01:41:50 51° NNW 01:41:50 51° NNW 01:45:20 10° N
deb Chang Zheng 4 4.5 01:38:43 10° N 01:42:11 43° NW 01:42:11 43° NW
Cosmos 968 Rocket 4.2 01:39:02 10° NNW 01:43:12 44° WNW 01:43:12 44° WNW
USA 267 3.9 01:38:55 10° ENE 01:45:16 54° NNW 01:51:35 10° W
Cosmos 1833 Rocket 3.8 01:50:29 31° ESE 01:50:32 31° ESE 01:55:27 10° NE
Cosmos 1867 3.6 01:45:21 10° NW 01:50:51 75° NE 01:51:26 68° E
Cosmos 2369 3.5 01:50:34 10° NNW 01:56:16 88° ENE 01:56:35 81° SE
Meteor 2-20 Rocket 4.3 01:50:56 10° N 01:57:04 89° E 01:57:46 72° SSE
Cosmos 1743 4.3 01:53:36 10° NNW 01:55:51 31° NW 01:55:51 31° NW
ADEOS Rocket 3.5 01:55:30 10° N 02:02:13 54° WNW 02:03:42 45° WSW
Meteor 2-20 4.4 01:57:59 10° NNW 02:04:00 66° W 02:04:25 64° WSW
Cosmos 2034 Rocket 4.2 02:03:27 53° SE 02:04:34 62° E 02:10:43 10° NNE
Mayak 0.8 02:02:47 10° NNW 02:05:47 19° WNW 02:05:47 19° WNW
Meteor 2-9 Rocket 4.0 02:05:04 10° NNW 02:10:35 81° W 02:10:43 80° WSW
Meteor 1-13 Rocket 4.1 02:12:10 74° SSE 02:12:39 82° E 02:18:26 10° NNE
Cosmos 967 Rocket 4.4 02:08:41 10° NW 02:15:07 68° WSW 02:15:40 65° SSW
Geosat 4.1 02:12:48 10° NNE 02:17:47 64° NW 02:18:10 62° W
Landsat 5 3.8 02:19:47 71° NNW 02:19:47 71° NNW 02:23:51 10° NNW
SeaSat 1 4.5 02:21:45 16° WNW 02:21:45 16° WNW 02:23:20 10° WNW
CZ-2D R/B 3.7 02:21:05 10° NE 02:25:28 25° E 02:27:17 21° ESE
Lacrosse 4 Rocket 2.2 02:22:59 10° NW 02:26:11 46° NW 02:26:11 46° NW
Cosmos 1464 Rocket 4.0 02:29:35 57° SW 02:30:42 68° WNW 02:37:00 10° N
Spot 2 4.2 02:29:57 10° NNE 02:34:45 83° ESE 02:35:00 79° SSE
Gbstr 26 Del rocket 4.3 02:31:31 38° WSW 02:35:01 88° SSE 02:42:07 10° ENE
Lacrosse 5 rocket 2.1 02:36:42 46° E 02:36:42 46° E 02:39:50 10° ENE
CZ-4B R/B 3.1 02:37:30 30° NNW 02:37:30 30° NNW 02:39:29 10° NNW
Cosmos 371 Rocket 3.2 02:36:48 76° SE 02:36:55 77° ESE 02:41:47 10° NNE
Cosmos 332 Rocket 3.6 02:37:03 81° SE 02:37:07 82° ESE 02:41:57 10° NNE
Cosmos 1455 Rocket 4.0 02:35:45 10° NNW 02:38:54 36° WNW 02:38:54 36° WNW
Cosmos 1975 Rocket 4.2 02:40:23 33° WNW 02:40:23 33° WNW 02:44:06 10° N
Meteor 2-4 Rocket 3.5 02:41:50 63° WSW 02:42:25 68° WNW 02:47:46 10° N
SL-16 R/B 2.9 02:39:09 27° SE 02:42:37 65° ENE 02:48:50 10° N
COSMOS 2487 4.2 02:45:10 26° E 02:45:10 26° E 02:47:39 10° NE
Nadezhda 4 Rocket 3.9 02:38:47 10° NNW 02:44:54 70° W 02:46:09 55° SSW
Cosmos 1980 Rocket 2.1 02:41:00 10° NNW 02:46:40 84° ENE 02:48:47 40° SE
Cosmos 1025 Rocket 3.6 02:46:31 44° ESE 02:46:50 45° E 02:50:56 10° NNE
SL-24 R/B 4.4 02:41:53 10° N 02:47:05 64° WNW 02:47:23 62° W
Cosmos 2278 4.1 02:42:08 10° NW 02:47:05 44° W 02:47:05 44° W
Meteor 1-23 Rocket 4.2 02:46:32 58° S 02:47:42 85° ESE 02:53:26 10° NNE
Cosmos 1697 Rocket 2.6 02:42:26 10° NW 02:48:02 61° WSW 02:48:22 59° SW
Cosmos 2084 Rocket 4.4 02:51:54 36° WNW 02:52:30 38° NW 02:56:25 10° NNE
Resurs 1-4 Rocket 3.0 02:49:19 10° NNE 02:54:20 42° E 02:56:08 31° SE
Iridium 4 Rocket 3.5 02:54:18 51° SE 02:54:59 58° E 02:59:34 10° N
Cosmos 1898 Rocket 3.8 02:50:33 10° NNW 02:55:45 66° ENE 02:58:32 27° SE
MOS 1 Rocket 3.7 02:51:15 10° N 02:55:46 49° WNW 02:56:09 48° W
Okean 2 3.4 02:59:28 74° ESE 02:59:31 74° E 03:03:38 10° NNE
SL-16 R/B 3.3 02:57:00 10° NNW 03:02:28 45° NE 03:07:53 10° SE
Cosmos 1937 Rocket 4.1 02:57:33 10° NNW 03:02:41 55° ENE 03:06:54 15° SE
Cosmos 1634 Rocket 4.1 03:00:32 39° SSE 03:02:57 71° E 03:09:14 10° NNE
Cosmos 2082 Rocket 2.1 03:01:51 55° SSW 03:03:09 87° WNW 03:08:51 10° NNE
PSLV R/B 4.5 03:02:53 41° ESE 03:03:56 55° ENE 03:07:56 10° N
APEX 4.3 03:02:43 48° SSW 03:04:41 87° ESE 03:10:15 10° NNE
Cosmos 304 Rocket 4.2 03:05:17 46° SSE 03:06:14 54° ESE 03:10:58 10° NNE
IRS-P3 4.2 03:05:22 10° NNE 03:10:44 74° ESE 03:12:25 45° S
Cosmos 1536 Rocket 4.0 03:12:12 45° WNW 03:12:14 45° WNW 03:16:27 10° N
Cosmos 1570 Rocket 4.1 03:12:55 47° S 03:14:22 71° ESE 03:19:42 10° NNE
Cosmos 990 Rocket 4.2 03:09:16 10° NNW 03:14:25 68° ENE 03:18:27 17° SE
Cosmos 2322 Rocket 3.0 03:11:00 10° NNW 03:16:33 52° NE 03:22:01 10° SE
Cosmos 2026 Rocket 4.0 03:11:11 10° N 03:17:36 87° W 03:20:51 31° S
NPP 3.6 03:12:33 10° NNE 03:17:59 90° ESE 03:19:43 45° SSW
SAR-Lupe-2 4.2 03:17:44 42° ESE 03:18:33 54° ENE 03:22:04 10° N
ARIANE 5 R/B 3.4 03:16:21 10° NNE 03:21:24 45° E 03:24:06 25° SSE
MOZ.5/SAFIR/RUBIN 5/SL-8 3.9 03:19:57 31° SSE 03:22:11 75° ENE 03:26:58 10° N
Cosmos 1932 4.5 03:21:02 40° SW 03:23:32 86° NW 03:29:57 10° NE
Gblst 52 Del rocket 4.2 03:20:33 10° WNW 03:26:15 89° NNE 03:32:37 10° ESE
Cosmos 1607 4.3 03:23:43 33° WSW 03:26:37 61° NW 03:33:05 10° NE
BREEZE-M R/B 4.5 03:27:30 20° SE 03:27:30 20° SE 03:30:49 10° E
USA 267 4.2 03:21:31 10° ENE 03:27:41 46° N 03:33:50 10° WNW
Cosmos 1340 Rocket 3.6 03:28:28 37° WNW 03:28:28 37° WNW 03:32:10 10° N
Meteor 1-22 Rocket 4.4 03:23:22 10° N 03:29:23 78° ENE 03:33:38 19° SSE
UNK 3.8 03:32:44 49° SW 03:33:25 54° W 03:37:58 10° NNW
Cosmos 1833 Rocket 3.1 03:32:10 34° WSW 03:34:15 50° NW 03:39:46 10° NNE
Cosmos 2150 Rocket 4.1 03:35:33 10° NNW 03:41:04 83° ENE 03:46:32 10° SSE
H-2A R/B 2.7 03:36:58 10° N 03:41:11 59° WNW 03:42:14 45° SW
Cosmos 1726 Rocket 3.4 03:38:36 10° NNW 03:42:56 83° W 03:44:38 37° S
Cosmos 1805 3.6 03:41:16 10° N 03:45:10 63° ENE 03:47:31 22° SSE
Cosmos 44 3.4 03:40:10 10° NW 03:45:20 67° SW 03:50:39 10° SSE
SL-08 R/B 3.8 03:45:58 37° WSW 03:46:47 40° W 03:51:25 10° NNW
Cosmos 2298 Rocket 3.9 03:43:47 10° NNW 03:49:08 79° WSW 03:54:16 11° SSE
IRS-1D 3.5 03:46:52 10° NNE 03:52:04 81° WNW 03:54:42 31° SSW
Cosmos 2266 Rocket 4.3 03:47:21 10° N 03:53:24 65° ENE 03:59:30 10° SSE
Cosmos 841 Rocket 4.2 03:51:28 20° S 03:54:48 49° ESE 03:59:49 10° NNE
Cosmos 1766 3.1 03:51:45 10° NNW 03:55:37 68° W 03:56:51 40° SSW
Timation 2 Rocket 4.2 03:52:20 23° S 03:56:02 59° ESE 04:01:54 10° NE
Cosmos 1953 3.7 03:55:07 10° N 03:58:58 38° ENE 04:02:47 10° SE
Cosmos 2228 2.9 03:56:07 10° NNW 04:00:23 71° W 04:02:35 27° S
ATLAS CENTAUR R/B 2.5 03:57:28 10° NNW 04:01:39 49° NE 04:06:08 10° ESE
AQUA 4.3 03:57:10 10° N 04:01:43 45° WNW 04:03:36 30° WSW
Cosmos 1655 Rocket 4.1 03:58:54 10° NNW 04:05:10 60° W 04:09:53 18° SSW
CZ-2D R/B 2.4 04:00:37 10° N 04:05:53 55° WNW 04:08:37 27° SW
Okean 1-7 Rocket 4.1 04:07:22 31° SW 04:09:01 45° WNW 04:13:24 10° N
Cosmos 2058 Rocket 3.1 04:05:29 10° NNW 04:09:52 62° W 04:12:36 22° S
Cosmos 1606 Rocket 4.2 04:07:56 10° NNW 04:11:52 35° W 04:13:01 29° WSW
ATLAS 3B R/B 3.1 04:06:54 20° SSW 04:11:59 61° ESE 04:18:45 10° NE
Cosmos 1733 3.8 04:08:39 10° N 04:12:30 57° ENE 04:16:19 10° SSE
ADEOS 3.7 04:07:56 10° NNE 04:13:10 73° ESE 04:17:26 16° S
Lacrosse 5 rocket 2.4 04:12:21 18° W 04:15:07 39° NNW 04:18:56 10° NE
ADEOS II 2.9 04:10:05 10° NNE 04:15:12 49° E 04:20:17 10° S
Cosmos 1544 4.3 04:12:59 10° NW 04:16:00 24° W 04:16:02 24° W
BREEZE-M R/B 4.3 04:11:24 10° W 04:17:12 81° N 04:25:20 10° E
Cosmos 1763 Rocket 3.5 04:15:43 23° SSW 04:19:03 80° WNW 04:24:25 10° NNE
COSMOS 2487 3.9 04:18:55 21° W 04:19:54 24° WNW 04:22:50 10° N
SJ 16-02 1.6 04:15:43 10° NNW 04:20:09 72° ENE 04:24:34 10° SSE
Cosmos 1626 Rocket 4.1 04:17:46 11° S 04:21:48 58° E 04:26:04 10° NNE
NOSS 3-2 (A) 4.2 04:17:26 15° S 04:22:12 47° ESE 04:28:29 10° NE
Gbstr 26 Del rocket 4.4 04:15:05 10° W 04:22:50 72° N 04:29:20 10° E
Cosmos 44 Rocket 3.6 04:18:30 10° NW 04:23:27 48° WSW 04:28:24 10° SSE
SL-16 R/B 3.6 04:24:14 21° SW 04:26:42 26° W 04:31:53 10° NW
Aureole 2 Rocket 2.8 04:23:02 10° NNW 04:26:54 71° ENE 04:30:29 10° SSE
Cosmos 1758 3.2 04:23:01 10° NNW 04:27:01 81° W 04:30:59 10° S
Cosmos 2360 Rocket 2.3 04:22:30 10° NNW 04:28:10 78° ENE 04:33:47 10° SSE
Cosmos 1980 Rocket 3.6 04:26:21 10° WNW 04:29:57 18° W 04:30:28 17° WSW
Cosmos 1892 Rocket 4.0 04:28:03 23° SW 04:30:24 44° WNW 04:34:37 10° N
Resurs 1-4 Rocket 3.0 04:29:24 10° N 04:34:03 33° WNW 04:37:13 18° WSW
Cosmos 724 4.4 04:34:38 19° SW 04:38:50 63° NW 04:44:38 10° NE
ERBS 4.5 04:37:33 10° S 04:40:01 19° SE 04:42:29 10° E
Helios 1A Rocket 3.5 04:41:33 10° N 04:45:30 42° WNW 04:48:24 17° SW
UNKNOWN OBJECT B 3.1 04:41:45 10° N 04:45:31 49° WNW 04:48:13 17° SW
SL-16 R/B 2.7 04:41:20 10° NW 04:46:29 36° WSW 04:51:36 10° S
Cosmos 2082 Rocket 3.9 04:43:51 10° W 04:48:06 21° NW 04:52:23 10° N
Meteor 1-21 4.4 04:44:10 14° SSW 04:48:53 54° WNW 04:54:23 10° N
Cosmos 2333 Rocket 3.9 04:43:49 10° NNW 04:49:04 37° NE 04:54:17 10° ESE
Cosmos 1378 3.3 04:45:47 10° S 04:49:31 77° E 04:53:18 10° NNE
Cosmos 1470 2.7 04:45:56 10° NNW 04:49:55 72° W 04:53:52 10° S
Cosmos 1125 Rocket 3.5 04:45:21 10° NNW 04:50:41 73° WSW 04:55:57 10° SSE
Cosmos 2219 Rocket 3.6 04:48:25 10° NNW 04:53:46 42° NE 04:59:03 10° ESE
COSMOS 2428 3.5 04:48:49 10° NNW 04:54:28 58° ENE 05:00:03 10° SE
CZ-2D R/B 4.1 04:55:39 10° N 04:59:27 38° WNW 05:02:54 12° SW
Cosmos 2322 Rocket 3.0 04:55:30 10° NW 05:00:20 30° WSW 05:05:07 10° SSW
ARIANE 5 R/B 3.6 04:55:48 10° N 05:00:21 31° WNW 05:04:27 12° WSW
Cosmos 372 Rocket 4.1 04:59:29 10° NNW 05:04:34 52° WSW 05:09:35 10° S
CZ-4C R/B 4.2 04:59:20 10° NW 05:05:39 41° NNE 05:12:49 10° E
Cosmos 1707 2.8 05:01:53 10° S 05:05:46 87° E 05:09:41 10° N
Meteor 1-16 Rocket 4.3 05:01:42 10° N 05:07:25 83° ENE 05:12:55 10° SSE
CZ-4B R/B 3.7 05:05:18 10° NNE 05:09:27 53° E 05:13:22 10° S
USA 267 3.7 05:03:43 10° ESE 05:10:12 67° NNE 05:16:42 10° WNW
Cosmos 1825 Rocket 4.0 05:07:48 10° S 05:12:04 63° E 05:16:22 10° NNE
Cosmos 292 Rocket 4.2 05:07:55 11° SW 05:12:29 49° WNW 05:17:10 10° NNE
USA 161 3.0 05:11:03 10° SE 05:13:53 41° ENE 05:16:35 10° N
Okean O Rocket 3.2 05:11:27 10° NNE 05:15:32 37° E 05:19:33 10° SSE
Cosmos 1238 Rocket 4.3 05:09:18 10° S 05:15:58 83° E 05:22:35 10° N
Cosmos 1833 4.3 05:11:57 10° SSW 05:17:46 88° ESE 05:23:34 10° NNE
USA 238 DEB 4.0 05:13:39 10° WSW 05:20:28 61° NW 05:27:27 10° NE
USA 238 4.0 05:13:45 10° WSW 05:20:34 61° NW 05:27:33 10° NE
Meteor 1-31 Rocket 4.3 05:21:03 10° NNE 05:24:42 38° E 05:28:18 10° SSE
PSLV R/B 3.5 05:20:31 10° NNE 05:24:45 80° WNW 05:28:56 10° SSW
CZ-4B R/B 4.4 05:22:56 10° NNE 05:28:19 46° E 05:33:32 10° S
BREEZE-M DEB (TANK) 4.2 05:33:38 10° WNW 05:47:46 76° SSW 05:51:34 10° ESE
